FREGAT DEB

Last updated on Thu Nov 21 2024 00:02:09 GMT+0000 (Coordinated Universal Time)

1 49271U 11037PF 24325.23678341 .00017933 00000+0 41758-1 0 9993 2 49271 51.6318 257.5622 0919633 96.0875 274.5399 12.23169539154251
UTC large
Height (km)
Speed (km/s)
/
Latitude / Longitude
Inclination (degrees)
Orbital Period (minutes)
Azimuth
Elevation
Range (km)
Doppler Factor

Next 0 passes for location: London (51.5072 / 0.1276)

Sorry there are no passes over London.